Location: Cotdoussan
(43.0366°N, 0.0068°E)
Time: 21:21:27
(UTC+00:00)

Daily predictions for brighter satellites

Satellite Brightness Start Highest point End
(mag) Time Altitude Azimuth Time Altitude Azimuth Time Altitude Azimuth
CZ-4B R/B 3.9 20:07:44 10° S 20:12:54 55° W 20:18:08 10° NNW
Okean O Rocket 1.9 20:10:36 10° S 20:15:00 73° WSW 20:19:23 10° NNW
SeaSat 1 3.3 20:13:01 10° ESE 20:17:31 38° NE 20:22:03 10° NNW
EXPRESS MD2 2.5 20:14:50 10° SW 20:18:31 59° SSE 20:20:56 10° ENE
Cosmos 1766 3.2 20:14:51 10° N 20:18:36 64° E 20:22:19 10° SSE
CARTOSAT-1 4.3 20:14:58 10° S 20:19:07 53° W 20:23:19 10° NNW
SL-24 R/B 4.4 20:15:28 10° SSE 20:20:32 85° WSW 20:24:57 10° NNW
CZ-4 R/B 3.8 20:19:03 10° SW 20:22:05 21° W 20:25:12 10° NW
Cosmos 2026 Rocket 4.1 20:16:20 10° S 20:22:32 88° W 20:28:41 10° N
Cosmos 1066 Rocket 4.3 20:17:06 10° S 20:22:57 80° E 20:28:45 10° NNE
Cosmos 1470 Rocket 3.6 20:18:44 10° N 20:23:05 64° E 20:27:22 10° SSE
OPS 6432 4.4 20:21:02 10° NW 20:24:05 68° WSW 20:27:24 10° SSE
USA 234 3.2 20:18:09 10° NE 20:24:41 69° SE 20:31:10 10° SW
IRIDIUM 104 4.4 20:22:40 10° N 20:27:54 69° E 20:33:05 10° S
Cosmos 1666 Rocket 4.4 20:26:16 10° NNW 20:30:29 52° W 20:34:42 10° S
Cosmos 2360 Rocket 4.3 20:27:39 10° N 20:30:49 15° NE 20:33:59 10° ENE
Cosmos 2285 Rocket 4.2 20:26:30 10° SSW 20:32:49 79° WNW 20:39:15 10° NNE
Cosmos 2333 Rocket 4.3 20:32:16 10° N 20:35:35 15° NE 20:38:54 10° E
Atlas Centaur 2 3.8 20:29:16 10° SW 20:36:18 32° S 20:43:21 10° ESE
IRIDIUM 114 4.3 20:31:48 10° N 20:37:03 83° E 20:42:16 10° S
ERS-1 Rocket 3.5 20:33:11 10° SE 20:37:55 46° ENE 20:42:43 10° N
SL-16 R/B 3.4 20:34:08 10° N 20:39:06 30° NE 20:43:56 10° ESE
Cosmos 1441 Rocket 4.1 20:36:04 10° N 20:39:17 30° ENE 20:41:54 14° SE
Resurs 01 Rocket 3.4 20:35:51 10° SSW 20:39:45 31° W 20:43:40 10° NNW
Cosmos 1763 Rocket 3.5 20:35:33 10° NNW 20:40:50 75° ENE 20:45:43 11° SSE
Cosmos 2369 3.8 20:35:12 10° NNW 20:40:58 88° ENE 20:46:32 11° SSE
Lacrosse 5 rocket 3.8 20:39:07 10° W 20:41:27 15° WSW 20:43:43 10° SSW
Cosmos 2082 Rocket 2.5 20:35:53 10° SSW 20:41:36 77° WNW 20:47:20 10° NNE
Spot 2 Rocket 4.2 20:38:13 12° SE 20:42:33 38° ENE 20:47:14 10° N
IRIDIUM 103 4.4 20:40:58 10° N 20:46:13 81° W 20:51:25 10° S
SPOT 5 2.6 20:42:50 10° SSE 20:47:09 87° ENE 20:51:31 10° NNW
Cosmos 1933 Rocket 3.7 20:43:00 10° N 20:47:24 60° E 20:51:18 13° SSE
Cosmos 1470 2.6 20:44:18 10° N 20:47:59 65° E 20:51:09 13° SSE
Cosmos 1908 3.3 20:51:38 10° N 20:55:10 52° E 20:57:41 17° SSE
Cosmos 1674 3.4 20:55:25 10° SSW 20:58:47 49° W 21:02:09 10° N
IRS-1C Rocket 4.1 20:54:03 11° SSE 20:59:10 87° WSW 21:04:28 10° NNW
ATLAS 2AS CENTAUR R/B 4.1 20:55:25 10° NNW 21:01:18 29° NE 21:07:00 10° E
KORONAS-FOTON 4.3 21:01:43 10° SSW 21:05:22 57° W 21:09:04 10° N
Ariane Rocket 3.2 21:03:06 17° SSE 21:06:59 60° ENE 21:12:01 10° N
Cosmos 468 Rocket 4.0 21:02:44 10° NNW 21:07:59 85° ENE 21:11:55 18° SSE
Cosmos 1842 4.1 21:05:22 10° SSW 21:08:54 46° WNW 21:12:26 10° N
COSMOS 2406 4.1 21:09:17 10° SW 21:14:54 53° WNW 21:20:31 10° NNE
SPOT 3 Rocket 3.6 21:12:14 19° SSE 21:15:56 66° ENE 21:21:04 10° N
Meteor 1-13 Rocket 4.3 21:11:41 10° S 21:17:31 88° E 21:23:16 10° N
SL-27 R/B 4.2 21:19:33 12° ENE 21:19:33 12° ENE 21:20:10 10° ENE
Cosmos 1553 Rocket 4.4 21:16:09 10° NNW 21:22:13 61° W 21:28:21 10° S
Cosmos 1980 Rocket 3.6 21:18:39 10° NW 21:23:36 32° WSW 21:28:31 10° SSW
Cosmos 2322 Rocket 3.0 21:18:30 10° NNW 21:23:51 41° ENE 21:27:28 19° ESE
S3M 4.0 21:18:04 10° N 21:24:28 76° E 21:29:06 19° SSE
Cosmos 1655 Rocket 4.2 21:22:56 17° SSE 21:27:46 59° E 21:34:02 10° NNE
SJ 16-02 2.7 21:28:53 20° ESE 21:29:19 20° E 21:32:27 10° NE
Cosmos 2278 3.7 21:27:07 10° NNW 21:32:52 87° WSW 21:36:25 24° SSE
Landsat 5 3.6 21:29:18 10° NNE 21:33:12 51° E 21:35:02 29° SSE
Landsat 4 3.6 21:32:54 29° S 21:34:32 71° WSW 21:37:58 10° NNW
Cosmos 1741 Rocket 4.2 21:31:50 21° S 21:35:09 51° ESE 21:40:17 10° NNE
USA 245 4.1 21:34:18 19° SSW 21:36:12 39° W 21:39:53 10° NNW
Tiangong -1.4 21:34:24 10° W 21:37:20 35° SSW 21:37:28 35° SSW
USA 281 4.2 21:32:45 15° ESE 21:37:25 35° NE 21:43:15 10° N
Cosmos 2266 Rocket 4.1 21:31:15 10° S 21:37:27 83° W 21:43:53 10° N
Cosmos 1400 Rocket 2.7 21:35:14 20° SSW 21:37:50 84° WNW 21:41:43 10° N
Cosmos 540 Rocket 4.2 21:33:01 10° NNW 21:37:56 46° WSW 21:41:30 18° S
MetOp-A 4.3 21:37:25 26° SE 21:40:12 58° ENE 21:45:22 10° N
Okean 3 4.3 21:39:26 29° ESE 21:40:27 33° E 21:44:11 10° NNE
Terra 2.4 21:37:48 18° S 21:41:08 52° W 21:45:45 10° NNW
Cosmos 1733 Rocket 3.5 21:38:17 10° N 21:42:34 49° ENE 21:44:16 31° SE
Cosmos 968 Rocket 3.9 21:41:01 28° SSE 21:43:14 43° ESE 21:48:07 10° NNE
Cosmos 2237 4.2 21:38:58 10° NNW 21:44:43 79° WSW 21:47:58 27° SSE
SL-4 R/B 4.2 21:42:58 10° WNW 21:46:15 25° N 21:49:41 10° NE
Cosmos 2228 Rocket 3.1 21:44:42 28° S 21:47:04 73° E 21:51:39 10° NNE
Cosmos 1315 Rocket 4.1 21:51:04 24° E 21:51:18 24° E 21:54:33 10° NE
Cosmos 2219 Rocket 3.5 21:47:31 10° N 21:52:26 29° NE 21:55:47 17° ESE
ATLAS CENTAUR R/B 1.0 21:52:13 50° SSE 21:52:36 53° ESE 21:56:05 10° NE
SeaSat 1 3.8 21:51:57 17° SSW 21:54:58 31° WSW 21:59:19 10° NW
Meteor 2-10 Rocket 3.7 21:52:04 10° NNW 21:57:41 80° W 22:00:34 29° S
Cosmos 1953 3.6 21:57:07 10° NNE 22:00:17 24° ENE 22:00:51 23° E
H-2A R/B 4.4 21:59:30 16° E 22:00:57 18° ENE 22:03:55 10° NNE
Cosmos 1455 3.7 22:00:46 10° NNE 22:03:29 21° ENE 22:03:41 21° E
Okean 1-7 3.6 22:04:58 36° ESE 22:05:41 39° E 22:09:44 10° NNE
USA 234 4.4 22:01:21 10° NE 22:07:28 44° NNW 22:13:35 10° W
BREEZE-M DEB (TANK) 2.6 22:06:10 10° NW 22:08:18 58° NNE 22:09:09 39° E
CZ-2C R/B 4.0 22:06:37 10° NNE 22:10:51 45° E 22:11:36 41° SE
Cosmos 2315 Rocket 4.3 22:09:11 10° NNW 22:15:30 66° W 22:19:12 26° SSW
Cosmos 2360 Rocket 2.2 22:10:04 10° NNW 22:15:47 79° ENE 22:18:06 37° SSE
Cosmos 841 Rocket 4.1 22:13:26 10° NNW 22:18:29 48° WSW 22:20:45 29° SSW
SL-14 R/B 4.3 22:17:26 24° SW 22:19:12 40° WNW 22:22:49 10° N
RESURS DK-1 2.5 22:16:22 10° NNW 22:20:23 60° WSW 22:21:10 49° SSW
Cosmos 2333 Rocket 2.2 22:15:03 10° NNW 22:20:49 80° ENE 22:23:08 38° SE
SL-16 R/B 2.9 22:17:58 10° NW 22:23:21 44° WSW 22:25:47 28° SSW
Atlas Centaur 2 3.7 22:17:45 10° WSW 22:24:47 31° S 22:25:49 30° S
Cosmos 1300 3.6 22:22:53 10° NNW 22:26:10 36° W 22:26:54 32° WSW
Aureole 3 3.7 22:30:50 43° SW 22:31:48 59° WNW 22:36:09 10° N
Cosmos 1703 Rocket 3.8 22:32:44 49° ESE 22:33:17 52° E 22:37:37 10° NNE
Cosmos 1833 4.2 22:30:08 26° SSW 22:33:27 83° WNW 22:39:07 10° NNE
Cosmos 1862 Rocket 4.4 22:32:47 28° SW 22:34:44 46° WNW 22:39:00 10° N
Cosmos 1346 Rocket 3.6 22:32:13 10° NNW 22:35:50 38° W 22:36:35 34° WSW
Meteor 1-4 Rocket 3.0 22:41:49 45° NW 22:41:49 45° NW 22:44:25 10° N
Cosmos 1932 4.4 22:38:31 26° SSW 22:42:16 82° ESE 22:48:35 10° NE
Cosmos 839 Rocket 4.0 22:38:18 10° NNW 22:45:11 81° ENE 22:47:42 39° SE
Meteor 1-16 Rocket 4.4 22:39:29 10° NNW 22:45:23 70° W 22:47:38 39° SSW
BlueWalker 3 4.4 22:50:03 11° ENE 22:50:03 11° ENE 22:50:16 10° ENE
Cosmos 2322 4.5 22:41:44 10° NNW 22:47:10 44° ENE 22:49:30 29° ESE
Cosmos 2237 Rocket 4.4 22:44:10 10° N 22:47:52 17° NE 22:51:32 10° E
SL-27 R/B 4.3 22:50:58 18° WNW 22:51:20 19° WNW 22:53:26 10° NNW
ATLAS 2AS CENTAUR R/B 2.6 22:46:04 10° NW 22:52:52 75° WSW 22:55:16 42° SSE
Cosmos 2333 4.2 22:47:21 10° NNW 22:53:08 75° WSW 22:54:50 47° S
ARIANE 5 R/B 2.6 22:54:59 60° SSW 22:55:33 69° WSW 22:59:53 10° NNW
Okean 2 4.0 23:00:22 43° WSW 23:01:01 47° WNW 23:04:54 10° N
PSLV R/B 4.0 22:58:25 10° N 23:02:23 65° WNW 23:02:50 59° WSW
Cosmos 1745 Rocket 4.0 23:05:11 45° S 23:07:17 78° E 23:13:39 10° N
SJ 16-02 2.5 23:05:35 25° WSW 23:07:22 37° WNW 23:11:25 10° N
Cosmos 2322 Rocket 3.3 23:02:49 10° NW 23:07:43 31° WSW 23:09:15 27° SW
Cosmos 1570 Rocket 4.2 23:02:41 10° NNW 23:08:01 67° ENE 23:09:22 48° SE
COSMOS 2455 3.3 23:08:59 39° SE 23:09:35 40° ESE 23:15:10 10° NE
Cosmos 2297 Rocket 3.3 23:13:10 27° ESE 23:13:22 27° ESE 23:18:03 10° NE
Nadezhda 1 Rocket 3.9 23:13:26 10° N 23:19:47 82° W 23:21:42 48° S
Cosmos 1408 3.8 23:22:14 30° NNE 23:22:14 30° NNE 23:23:57 10° NNE
GP-B 3.8 23:17:08 10° N 23:21:20 44° W 23:22:05 40° WSW
USA 281 3.6 23:19:37 38° SSW 23:21:41 50° WSW 23:28:05 10° NNW
SL-4 R/B 4.0 23:22:22 10° NW 23:25:54 28° NNE 23:29:37 10° ENE
COSMOS 2428 2.8 23:20:54 10° NNW 23:26:36 72° ENE 23:28:13 47° SE
ATLAS CENTAUR R/B 3.9 23:28:27 10° WNW 23:30:35 15° NW 23:32:44 10° N
GEOS 3 Rocket 3.9 23:26:31 10° NE 23:31:28 46° ESE 23:31:28 46° ESE
Cosmos 1782 Rocket 3.6 23:29:53 10° NNW 23:34:09 62° W 23:34:15 62° WSW
Cosmos 1242 Rocket 4.5 23:35:32 19° NW 23:35:32 19° NW 23:36:55 10° NNW
CZ-3 Stage 3 4.0 23:10:29 10° W 23:34:57 39° SSW 23:37:06 35° S
H-2A R/B 3.1 23:35:29 44° WSW 23:35:32 44° W 23:39:40 10° NNW
Cosmos 1953 4.0 23:32:58 10° NW 23:35:58 22° W 23:35:58 22° W
Spot 2 4.4 23:35:40 64° S 23:36:26 79° WSW 23:41:32 10° NNW
Cosmos 2219 Rocket 2.7 23:31:09 10° NW 23:36:33 45° WSW 23:37:28 42° SW
Cosmos 1455 4.0 23:35:06 10° NW 23:37:25 21° W 23:37:25 21° W
Cosmos 2208 Rocket 3.8 23:33:32 10° NNW 23:38:46 89° WSW 23:39:34 65° SSE
Cosmos 371 Rocket 3.3 23:39:00 62° ESE 23:39:10 62° ESE 23:43:55 10° NNE
Cosmos 158 Rocket 3.9 23:35:56 10° NNW 23:41:16 89° ENE 23:42:08 63° SSE
Spot 4 4.2 23:42:36 47° WSW 23:43:02 48° W 23:47:41 10° NNW
Cosmos 836 Rocket 4.4 23:38:26 10° NNW 23:43:40 83° ENE 23:44:34 62° SSE
Cosmos 773 Rocket 4.4 23:43:31 10° NNW 23:48:35 56° ENE 23:49:51 44° ESE
ALOS 2 2.8 23:49:16 55° WSW 23:49:18 55° W 23:53:38 10° NNW
Cosmos 2151 Rocket 4.5 23:45:29 10° N 23:49:36 37° ENE 23:50:04 36° E
Cosmos 1503 Rocket 4.1 23:51:55 58° SE 23:52:34 63° ESE 23:57:49 10° NNE
